Weather History for KOGB - August, 2013

Change the Weather History Date:

Sunday, August 11, 2013

  Actual Average Record
Temperature  
Mean Temperature 84 °F 81 °F  
Max Temperature 94 °F 90 °F 99 °F (1983)
Min Temperature 74 °F 71 °F 61 °F (1954)
Degree Days  
Heating Degree Days 0 0  
Month to date heating degree days 0 0  
Since 1 June heating degree days 0 1  
Since 1 July heating degree days 0 0  
Cooling Degree Days 19 16  
Month to date cooling degree days 178 180  
Year to date cooling degree days 1340 1402  
Since 1 June cooling degree days 1078 1099  
Growing Degree Days 33 (Base 50)    
Moisture  
Dew Point 71 °F    
Average Humidity 69    
Maximum Humidity 94    
Minimum Humidity 41    
Precipitation  
Precipitation 0.00 in 0.18 in 4.24 in (1970)
Month to date precipitation 0.38 1.96  
Year to date precipitation 38.12 29.99  
Sea Level Pressure  
Sea Level Pressure 30.10 in    
Wind  
Wind Speed 6 mph (SW)    
Max Wind Speed 15 mph    
Max Gust Speed 21 mph    
Visibility 10 miles    
Events      
T = Trace of Precipitation, MM = Missing Value Source: NWS Daily Summary

Daily Weather History Graph

Daily Weather History Graph

Search for Another Location

Airport or City:

Trip Planner

Search our weather history database for the weather conditions in past years. The results will help you decide how hot, cold, wet, or windy it might be!

Date:

Astronomy

Aug. 11, 2013 Rise Set
Actual Time 6:43 AM EDT 8:13 PM EDT
Civil Twilight 6:16 AM EDT 8:39 PM EDT
Nautical Twilight 5:44 AM EDT 9:11 PM EDT
Astronomical Twilight 5:11 AM EDT 9:44 PM EDT
Moon 11:11 AM EDT (8/11) 10:47 PM EDT (8/11)
Length of Visible Light 14h 23m
Length of Day
13h 30m
Waxing Crescent, 22% of the Moon is Illuminated
Aug 11
Waxing Crescent
Aug 14
First Quarter
Aug 20
Full
Aug 28
Last Quarter
Sep 5
New

Hourly Weather History & Observations

Time (EDT) Temp. Heat Index Dew Point Humidity Pressure Visibility Wind Dir Wind Speed Gust Speed Precip Events Conditions
12:53 AM 77.0 °F - 73.0 °F 88% 30.11 in 10.0 mi SW 3.5 mph - N/A   Clear
1:53 AM 77.0 °F - 72.0 °F 84% 30.10 in 10.0 mi SSW 4.6 mph - N/A   Clear
2:53 AM 75.9 °F - 72.0 °F 87% 30.11 in 10.0 mi SSW 4.6 mph - N/A   Clear
3:53 AM 75.9 °F - 72.0 °F 87% 30.12 in 10.0 mi SW 3.5 mph - N/A   Clear
4:53 AM 75.0 °F - 72.0 °F 90% 30.12 in 10.0 mi Calm Calm - N/A   Clear
5:53 AM 75.0 °F - 72.0 °F 90% 30.12 in 10.0 mi SSW 3.5 mph - N/A   Clear
6:53 AM 73.9 °F - 72.0 °F 93% 30.14 in 10.0 mi SSW 3.5 mph - N/A   Clear
7:53 AM 75.9 °F - 73.0 °F 91% 30.14 in 10.0 mi SW 4.6 mph - N/A   Clear
8:53 AM 81.0 °F 85.8 °F 73.0 °F 77% 30.15 in 10.0 mi WSW 5.8 mph - N/A   Clear
9:53 AM 84.9 °F 92.1 °F 73.9 °F 69% 30.14 in 10.0 mi SW 5.8 mph - N/A   Clear
10:53 AM 89.1 °F 96.0 °F 72.0 °F 57% 30.15 in 10.0 mi West 8.1 mph - N/A   Clear
11:53 AM 91.0 °F 95.6 °F 69.1 °F 48% 30.14 in 10.0 mi WNW 10.4 mph - N/A   Clear
12:53 PM 91.0 °F 95.2 °F 68.0 °F 47% 30.13 in 10.0 mi WSW 9.2 mph 16.1 mph N/A   Partly Cloudy
1:53 PM 91.9 °F 94.5 °F 66.0 °F 42% 30.11 in 10.0 mi West 12.7 mph - N/A   Partly Cloudy
2:53 PM 93.0 °F 96.4 °F 66.9 °F 42% 30.09 in 10.0 mi WSW 12.7 mph - N/A   Clear
3:53 PM 93.0 °F 97.4 °F 68.0 °F 44% 30.07 in 10.0 mi SSW 10.4 mph - N/A   Partly Cloudy
4:53 PM 93.0 °F 97.4 °F 68.0 °F 44% 30.06 in 10.0 mi SW 10.4 mph - N/A   Scattered Clouds
5:53 PM 93.0 °F 97.9 °F 69.1 °F 45% 30.06 in 10.0 mi SSW 6.9 mph - N/A   Partly Cloudy
6:53 PM 91.0 °F 96.6 °F 70.0 °F 50% 30.06 in 10.0 mi SW 5.8 mph - N/A   Clear
7:53 PM 87.1 °F 93.6 °F 72.0 °F 61% 30.05 in 10.0 mi SSW 3.5 mph - N/A   Clear
8:53 PM 82.9 °F 88.8 °F 73.0 °F 72% 30.06 in 10.0 mi Calm Calm - N/A   Clear
9:53 PM 81.0 °F 85.8 °F 73.0 °F 77% 30.09 in 10.0 mi Calm Calm - N/A   Clear
10:53 PM 80.1 °F 84.5 °F 73.9 °F 81% 30.10 in 10.0 mi SW 3.5 mph - N/A   Partly Cloudy
11:53 PM 79.0 °F - 73.0 °F 82% 30.09 in 10.0 mi SSW 4.6 mph - N/A   Clear